Dati storici da Weather Underground
 
Giornaliero Sommario per Settembre 21, 2019 Unitá:  Metrico    Inglese   Fra
Giornaliero Settimanale Mensile Annuale
  Corrente: Massimo: Minimo: Medio:
Temperatura: 23 °C 25 °C 15 °C 20.5 °C
Punto di rugiada: 17 °C 18 °C 11 °C 14.4 °C
Umiditá: 70% 77% 58% 69%
Velocitá vento: 2km/h 13km/h 0km/h 2.4km/h
Raffica vento: 5km/h 19km/h - -
VentoSSW - - West
Pressione: 1019.3 hPa 1021 hPa 1018.96 hPa -
Precipitazioni: 0 mm      
Historical Graphs
 
 
Dati tabulati per Settembre 21, 2019
Ora Temperatura Punto di rugiada Pressione Vento Velocitá vento Raffica vento Umiditá Intensitá di pioggia (per ora) Rad. Solare
00:00 20 °C 12 °C 1019.64 hPa NW 8 km/h 13 km/h 58% 0 mm 0 W/m2
00:05 20 °C 12 °C 1019.64 hPa NNE 5 km/h 13 km/h 58% 0 mm 0 W/m2
00:10 20 °C 11 °C 1019.64 hPa N 10 km/h 11 km/h 58% 0 mm 0 W/m2
00:15 20 °C 11 °C 1019.64 hPa NNW 10 km/h 14 km/h 58% 0 mm 0 W/m2
00:20 20 °C 11 °C 1019.64 hPa NNW 8 km/h 14 km/h 58% 0 mm 0 W/m2
00:25 20 °C 11 °C 1019.3 hPa NW 5 km/h 16 km/h 58% 0 mm 0 W/m2
00:30 19 °C 11 °C 1019.64 hPa NNW 10 km/h 16 km/h 58% 0 mm 0 W/m2
00:35 19 °C 11 °C 1019.64 hPa NW 6 km/h 19 km/h 59% 0 mm 0 W/m2
00:40 19 °C 11 °C 1019.64 hPa NNW 3 km/h 19 km/h 59% 0 mm 0 W/m2
00:45 19 °C 11 °C 1019.64 hPa NNW 8 km/h 14 km/h 60% 0 mm 0 W/m2
00:50 19 °C 11 °C 1019.64 hPa NNW 10 km/h 14 km/h 60% 0 mm 0 W/m2
00:55 19 °C 11 °C 1019.64 hPa Calm   14 km/h 61% 0 mm 0 W/m2
01:00 19 °C 11 °C 1019.64 hPa NW 6 km/h 16 km/h 61% 0 mm 0 W/m2
01:05 19 °C 11 °C 1019.64 hPa NNW 13 km/h 13 km/h 61% 0 mm 0 W/m2
01:10 19 °C 11 °C 1019.64 hPa N 6 km/h 13 km/h 61% 0 mm 0 W/m2
01:15 18 °C 11 °C 1019.64 hPa Calm   10 km/h 62% 0 mm 0 W/m2
01:20 18 °C 11 °C 1019.64 hPa NNW 2 km/h 14 km/h 62% 0 mm 0 W/m2
01:25 18 °C 11 °C 1019.64 hPa NNW 8 km/h 13 km/h 62% 0 mm 0 W/m2
01:30 18 °C 11 °C 1019.64 hPa NNW 6 km/h 10 km/h 63% 0 mm 0 W/m2
01:35 18 °C 11 °C 1019.64 hPa NNW 2 km/h 10 km/h 63% 0 mm 0 W/m2
01:40 18 °C 11 °C 1019.64 hPa NNW 8 km/h 8 km/h 63% 0 mm 0 W/m2
01:45 18 °C 11 °C 1019.64 hPa NNW 3 km/h 10 km/h 64% 0 mm 0 W/m2
01:50 18 °C 11 °C 1019.64 hPa NW 5 km/h 8 km/h 64% 0 mm 0 W/m2
01:55 18 °C 11 °C 1019.64 hPa NW 3 km/h 8 km/h 65% 0 mm 0 W/m2
02:00 18 °C 11 °C 1019.64 hPa NW 3 km/h 6 km/h 65% 0 mm 0 W/m2
02:05 18 °C 11 °C 1019.64 hPa N 8 km/h 8 km/h 65% 0 mm 0 W/m2
02:10 18 °C 11 °C 1019.64 hPa NNW 2 km/h 13 km/h 66% 0 mm 0 W/m2
02:15 18 °C 11 °C 1019.64 hPa NNW 3 km/h 8 km/h 66% 0 mm 0 W/m2
02:20 18 °C 12 °C 1019.64 hPa NW 5 km/h 8 km/h 67% 0 mm 0 W/m2
02:25 18 °C 12 °C 1019.64 hPa NNW 5 km/h 6 km/h 68% 0 mm 0 W/m2
02:30 18 °C 12 °C 1019.64 hPa NW 3 km/h 8 km/h 68% 0 mm 0 W/m2
02:35 18 °C 12 °C 1019.64 hPa Calm   8 km/h 69% 0 mm 0 W/m2
02:40 18 °C 12 °C 1019.64 hPa Calm   8 km/h 69% 0 mm 0 W/m2
02:45 17 °C 12 °C 1019.64 hPa NW 2 km/h 5 km/h 70% 0 mm 0 W/m2
02:50 17 °C 12 °C 1019.64 hPa NNW 3 km/h 6 km/h 70% 0 mm 0 W/m2
02:55 17 °C 12 °C 1019.64 hPa NW 3 km/h 8 km/h 70% 0 mm 0 W/m2
03:00 17 °C 12 °C 1019.64 hPa Calm   8 km/h 71% 0 mm 0 W/m2
03:05 17 °C 12 °C 1019.64 hPa Calm   5 km/h 72% 0 mm 0 W/m2
03:10 17 °C 12 °C 1019.64 hPa Calm   6 km/h 72% 0 mm 0 W/m2
03:15 17 °C 12 °C 1019.3 hPa Calm   5 km/h 72% 0 mm 0 W/m2
03:20 17 °C 12 °C 1019.64 hPa NW 5 km/h 10 km/h 72% 0 mm 0 W/m2
03:25 17 °C 12 °C 1019.64 hPa Calm   8 km/h 72% 0 mm 0 W/m2
03:30 17 °C 12 °C 1019.64 hPa Calm     72% 0 mm 0 W/m2
03:35 17 °C 12 °C 1019.64 hPa Calm     73% 0 mm 0 W/m2
03:40 17 °C 12 °C 1019.64 hPa Calm     73% 0 mm 0 W/m2
03:45 17 °C 12 °C 1019.64 hPa Calm     73% 0 mm 0 W/m2
03:50 17 °C 12 °C 1019.64 hPa Calm     73% 0 mm 0 W/m2
03:55 17 °C 12 °C 1019.64 hPa Calm     73% 0 mm 0 W/m2
04:00 17 °C 12 °C 1019.64 hPa Calm     73% 0 mm 0 W/m2
04:05 17 °C 12 °C 1019.64 hPa Calm     73% 0 mm 0 W/m2
04:10 17 °C 12 °C 1019.64 hPa Calm     73% 0 mm 0 W/m2
04:15 17 °C 12 °C 1019.64 hPa Calm     73% 0 mm 0 W/m2
04:20 17 °C 12 °C 1019.64 hPa Calm     73% 0 mm 0 W/m2
04:25 17 °C 12 °C 1019.64 hPa Calm     73% 0 mm 0 W/m2
04:30 17 °C 12 °C 1019.64 hPa Calm     73% 0 mm 0 W/m2
04:35 17 °C 12 °C 1019.64 hPa Calm     73% 0 mm 0 W/m2
04:40 16 °C 12 °C 1019.64 hPa Calm   2 km/h 73% 0 mm 0 W/m2
04:45 16 °C 11 °C 1019.64 hPa Calm     73% 0 mm 0 W/m2
04:50 16 °C 11 °C 1019.3 hPa Calm   2 km/h 73% 0 mm 0 W/m2
04:55 16 °C 11 °C 1019.3 hPa Calm     73% 0 mm 0 W/m2
05:00 16 °C 11 °C 1019.3 hPa Calm     73% 0 mm 0 W/m2
05:05 16 °C 11 °C 1019.3 hPa NW 3 km/h 6 km/h 73% 0 mm 0 W/m2
05:10 16 °C 11 °C 1019.3 hPa WNW 5 km/h 10 km/h 73% 0 mm 0 W/m2
05:15 16 °C 12 °C 1019.3 hPa NW 6 km/h 8 km/h 74% 0 mm 0 W/m2
05:20 16 °C 12 °C 1019.3 hPa NNW 6 km/h 10 km/h 74% 0 mm 0 W/m2
05:25 16 °C 12 °C 1019.3 hPa NW 3 km/h 13 km/h 75% 0 mm 0 W/m2
05:30 16 °C 12 °C 1019.3 hPa NW 8 km/h 10 km/h 75% 0 mm 0 W/m2
05:35 16 °C 12 °C 1019.3 hPa NNW 6 km/h 13 km/h 75% 0 mm 0 W/m2
05:40 16 °C 12 °C 1019.3 hPa NW 6 km/h 10 km/h 76% 0 mm 0 W/m2
05:45 16 °C 12 °C 1019.3 hPa WNW 5 km/h 8 km/h 76% 0 mm 0 W/m2
05:50 16 °C 11 °C 1019.3 hPa Calm   11 km/h 76% 0 mm 0 W/m2
05:55 16 °C 11 °C 1019.3 hPa NW 8 km/h 13 km/h 76% 0 mm 0 W/m2
06:00 15 °C 11 °C 1019.3 hPa NNW 8 km/h 16 km/h 76% 0 mm 0 W/m2
06:05 15 °C 11 °C 1019.3 hPa NW 8 km/h 14 km/h 76% 0 mm 0 W/m2
06:10 15 °C 11 °C 1019.64 hPa Calm   11 km/h 76% 0 mm 0 W/m2
06:15 15 °C 11 °C 1019.3 hPa NW 6 km/h 14 km/h 76% 0 mm 0 W/m2
06:20 15 °C 11 °C 1019.64 hPa NW 5 km/h 14 km/h 77% 0 mm 0 W/m2
06:25 15 °C 11 °C 1019.64 hPa NW 6 km/h 13 km/h 77% 0 mm 0 W/m2
06:30 15 °C 11 °C 1019.64 hPa NW 3 km/h 10 km/h 77% 0 mm 0 W/m2
06:35 15 °C 11 °C 1019.64 hPa NNW 5 km/h 13 km/h 77% 0 mm 0 W/m2
06:40 15 °C 11 °C 1019.64 hPa N 13 km/h 14 km/h 77% 0 mm 0 W/m2
06:45 15 °C 11 °C 1019.64 hPa NW 5 km/h 14 km/h 77% 0 mm 0 W/m2
06:50 15 °C 11 °C 1019.64 hPa NW 11 km/h 13 km/h 77% 0 mm 0 W/m2
06:55 15 °C 11 °C 1019.64 hPa NNW 3 km/h 13 km/h 77% 0 mm 0 W/m2
07:00 15 °C 11 °C 1019.64 hPa NW 6 km/h 8 km/h 77% 0 mm 7 W/m2
07:05 15 °C 11 °C 1019.64 hPa WNW 5 km/h 13 km/h 76% 0 mm 11 W/m2
07:10 15 °C 11 °C 1019.98 hPa W 3 km/h 10 km/h 76% 0 mm 14 W/m2
07:15 15 °C 11 °C 1019.98 hPa NNW 6 km/h 10 km/h 76% 0 mm 18 W/m2
07:20 15 °C 11 °C 1019.64 hPa WNW 13 km/h 14 km/h 76% 0 mm 21 W/m2
07:25 15 °C 11 °C 1019.98 hPa NNW 10 km/h 14 km/h 76% 0 mm 28 W/m2
07:30 15 °C 11 °C 1019.98 hPa NNW 6 km/h 13 km/h 76% 0 mm 35 W/m2
07:35 15 °C 11 °C 1019.98 hPa NNW 10 km/h 14 km/h 76% 0 mm 42 W/m2
07:40 15 °C 11 °C 1019.98 hPa NW 6 km/h 14 km/h 76% 0 mm 49 W/m2
07:45 15 °C 11 °C 1019.98 hPa NW 6 km/h 13 km/h 76% 0 mm 62 W/m2
07:50 15 °C 11 °C 1019.98 hPa NNW 8 km/h 13 km/h 76% 0 mm 72 W/m2
07:55 15 °C 11 °C 1019.98 hPa NW 6 km/h 11 km/h 76% 0 mm 84 W/m2
08:00 15 °C 11 °C 1019.98 hPa NW 3 km/h 10 km/h 76% 0 mm 91 W/m2
08:05 15 °C 11 °C 1019.98 hPa NNW 8 km/h 13 km/h 75% 0 mm 102 W/m2
08:10 16 °C 11 °C 1019.98 hPa NW 8 km/h 14 km/h 75% 0 mm 111 W/m2
08:15 16 °C 11 °C 1019.98 hPa Calm   13 km/h 75% 0 mm 127 W/m2
08:20 16 °C 11 °C 1019.98 hPa Calm   13 km/h 75% 0 mm 146 W/m2
08:25 16 °C 12 °C 1020.32 hPa Calm   10 km/h 75% 0 mm 165 W/m2
08:30 16 °C 12 °C 1020.32 hPa NW 3 km/h 8 km/h 75% 0 mm 178 W/m2
08:35 16 °C 12 °C 1020.32 hPa NW 3 km/h 6 km/h 75% 0 mm 185 W/m2
08:40 17 °C 12 °C 1020.32 hPa Calm   8 km/h 75% 0 mm 195 W/m2
08:45 17 °C 12 °C 1020.32 hPa Calm   2 km/h 74% 0 mm 204 W/m2
08:50 17 °C 12 °C 1020.32 hPa Calm   8 km/h 73% 0 mm 197 W/m2
08:55 18 °C 13 °C 1020.66 hPa Calm   3 km/h 73% 0 mm 197 W/m2
09:00 18 °C 13 °C 1020.32 hPa Calm   3 km/h 73% 0 mm 248 W/m2
09:05 18 °C 13 °C 1020.32 hPa Calm   5 km/h 72% 0 mm 272 W/m2
09:10 18 °C 13 °C 1020.32 hPa Calm   2 km/h 72% 0 mm 295 W/m2
09:15 19 °C 13 °C 1020.32 hPa NNW 3 km/h 3 km/h 71% 0 mm 318 W/m2
09:20 19 °C 14 °C 1020.32 hPa Calm   5 km/h 71% 0 mm 339 W/m2
09:25 19 °C 14 °C 1020.32 hPa Calm   2 km/h 71% 0 mm 362 W/m2
09:30 20 °C 14 °C 1020.32 hPa Calm   3 km/h 70% 0 mm 381 W/m2
09:35 20 °C 14 °C 1020.32 hPa Calm   3 km/h 70% 0 mm 403 W/m2
09:40 20 °C 15 °C 1020.32 hPa Calm   2 km/h 70% 0 mm 417 W/m2
09:45 21 °C 15 °C 1020.32 hPa Calm   2 km/h 70% 0 mm 431 W/m2
09:50 21 °C 15 °C 1020.32 hPa Calm   5 km/h 69% 0 mm 445 W/m2
09:55 22 °C 16 °C 1020.32 hPa Calm   2 km/h 70% 0 mm 455 W/m2
10:00 22 °C 16 °C 1020.32 hPa Calm   2 km/h 69% 0 mm 448 W/m2
10:05 23 °C 16 °C 1020.32 hPa SSW 2 km/h 8 km/h 68% 0 mm 480 W/m2
10:10 23 °C 17 °C 1020.66 hPa Calm   10 km/h 68% 0 mm 492 W/m2
10:15 23 °C 17 °C 1020.66 hPa SSW 3 km/h 11 km/h 69% 0 mm 508 W/m2
10:20 23 °C 17 °C 1020.66 hPa Calm   6 km/h 69% 0 mm 519 W/m2
10:25 23 °C 17 °C 1020.66 hPa Calm   2 km/h 68% 0 mm 540 W/m2
10:30 23 °C 17 °C 1020.66 hPa Calm     68% 0 mm 578 W/m2
10:35 24 °C 17 °C 1020.66 hPa SSE 2 km/h 6 km/h 68% 0 mm 220 W/m2
10:40 24 °C 17 °C 1020.66 hPa Calm   2 km/h 67% 0 mm 659 W/m2
10:45 24 °C 17 °C 1020.66 hPa Calm   8 km/h 66% 0 mm 434 W/m2
10:50 24 °C 17 °C 1020.66 hPa Calm   2 km/h 66% 0 mm 378 W/m2
10:55 24 °C 17 °C 1020.66 hPa Calm   3 km/h 67% 0 mm 657 W/m2
11:00 24 °C 18 °C 1020.66 hPa SSE 3 km/h 2 km/h 67% 0 mm 724 W/m2
11:05 24 °C 17 °C 1020.66 hPa Calm   6 km/h 66% 0 mm 199 W/m2
11:10 24 °C 17 °C 1020.66 hPa Calm   8 km/h 67% 0 mm 297 W/m2
11:15 24 °C 18 °C 1020.66 hPa SSW 2 km/h 5 km/h 67% 0 mm 752 W/m2
11:20 24 °C 17 °C 1020.66 hPa W 2 km/h 3 km/h 66% 0 mm 260 W/m2
11:25 24 °C 17 °C 1020.66 hPa Calm   5 km/h 66% 0 mm 257 W/m2
11:30 24 °C 17 °C 1020.66 hPa Calm   6 km/h 66% 0 mm 248 W/m2
11:35 24 °C 18 °C 1020.66 hPa Calm   6 km/h 67% 0 mm 301 W/m2
11:40 24 °C 17 °C 1020.66 hPa Calm   8 km/h 66% 0 mm 274 W/m2
11:45 24 °C 17 °C 1020.66 hPa SSE 2 km/h 13 km/h 66% 0 mm 308 W/m2
11:50 24 °C 17 °C 1020.66 hPa Calm   11 km/h 66% 0 mm 301 W/m2
11:55 24 °C 17 °C 1020.66 hPa Calm     67% 0 mm 642 W/m2
12:00 24 °C 17 °C 1020.66 hPa SE 3 km/h 11 km/h 66% 0 mm 664 W/m2
12:05 24 °C 17 °C 1020.66 hPa Calm   19 km/h 67% 0 mm 257 W/m2
12:10 24 °C 17 °C 1020.66 hPa Calm   5 km/h 68% 0 mm 320 W/m2
12:15 24 °C 17 °C 1020.66 hPa SSW 3 km/h 5 km/h 68% 0 mm 469 W/m2
12:20 24 °C 18 °C 1020.66 hPa SSW 6 km/h 11 km/h 68% 0 mm 654 W/m2
12:25 24 °C 18 °C 1020.66 hPa Calm   8 km/h 68% 0 mm 717 W/m2
12:30 24 °C 18 °C 1020.66 hPa Calm   8 km/h 67% 0 mm 598 W/m2
12:35 24 °C 18 °C 1020.66 hPa Calm   11 km/h 67% 0 mm 295 W/m2
12:40 24 °C 18 °C 1020.66 hPa Calm   8 km/h 68% 0 mm 626 W/m2
12:45 24 °C 18 °C 1020.66 hPa Calm   6 km/h 68% 0 mm 341 W/m2
12:50 24 °C 18 °C 1020.66 hPa Calm   10 km/h 67% 0 mm 819 W/m2
12:55 24 °C 18 °C 1020.66 hPa Calm   3 km/h 67% 0 mm 805 W/m2
13:00 24 °C 18 °C 1020.66 hPa SW 2 km/h 14 km/h 67% 0 mm 638 W/m2
13:05 24 °C 18 °C 1020.66 hPa Calm   11 km/h 68% 0 mm 638 W/m2
13:10 24 °C 18 °C 1020.66 hPa Calm   10 km/h 67% 0 mm 320 W/m2
13:15 24 °C 18 °C 1020.66 hPa S 2 km/h 10 km/h 67% 0 mm 693 W/m2
13:20 24 °C 18 °C 1020.66 hPa Calm   16 km/h 67% 0 mm 621 W/m2
13:25 24 °C 18 °C 1020.66 hPa Calm   11 km/h 67% 0 mm 671 W/m2
13:30 24 °C 18 °C 1020.66 hPa Calm   8 km/h 67% 0 mm 701 W/m2
13:35 24 °C 18 °C 1020.66 hPa SW 2 km/h 10 km/h 66% 0 mm 749 W/m2
13:40 24 °C 18 °C 1020.32 hPa Calm   13 km/h 66% 0 mm 244 W/m2
13:45 24 °C 17 °C 1020.66 hPa Calm   10 km/h 66% 0 mm 610 W/m2
13:50 24 °C 18 °C 1020.66 hPa WSW 8 km/h 8 km/h 67% 0 mm 728 W/m2
13:55 24 °C 18 °C 1020.66 hPa WNW 2 km/h 13 km/h 67% 0 mm 708 W/m2
14:00 24 °C 18 °C 1020.66 hPa Calm   10 km/h 66% 0 mm 237 W/m2
14:05 25 °C 18 °C 1020.66 hPa Calm   8 km/h 66% 0 mm 728 W/m2
14:10 25 °C 18 °C 1020.66 hPa NNW 2 km/h 6 km/h 66% 0 mm 719 W/m2
14:15 25 °C 18 °C 1021 hPa S 6 km/h 6 km/h 66% 0 mm 749 W/m2
14:20 25 °C 18 °C 1020.66 hPa SSE 5 km/h 13 km/h 66% 0 mm 719 W/m2
14:25 24 °C 18 °C 1020.66 hPa Calm   16 km/h 67% 0 mm 622 W/m2
14:30 25 °C 18 °C 1020.66 hPa Calm   10 km/h 66% 0 mm 738 W/m2
14:35 25 °C 18 °C 1020.66 hPa Calm   5 km/h 66% 0 mm 758 W/m2
14:40 25 °C 18 °C 1020.66 hPa S 2 km/h 5 km/h 66% 0 mm 701 W/m2
14:45 25 °C 18 °C 1020.66 hPa Calm   6 km/h 65% 0 mm 526 W/m2
14:50 25 °C 18 °C 1020.66 hPa Calm   11 km/h 65% 0 mm 629 W/m2
14:55 25 °C 18 °C 1020.66 hPa Calm   6 km/h 65% 0 mm 610 W/m2
15:00 25 °C 18 °C 1020.66 hPa Calm   6 km/h 65% 0 mm 503 W/m2
15:05 25 °C 18 °C 1020.32 hPa Calm   11 km/h 64% 0 mm 555 W/m2
15:10 25 °C 18 °C 1020.32 hPa S 2 km/h 5 km/h 65% 0 mm 422 W/m2
15:15 25 °C 17 °C 1020.32 hPa Calm   10 km/h 64% 0 mm 520 W/m2
15:20 25 °C 18 °C 1019.98 hPa Calm   6 km/h 64% 0 mm 703 W/m2
15:25 25 °C 18 °C 1019.98 hPa SE 2 km/h 5 km/h 64% 0 mm 350 W/m2
15:30 25 °C 18 °C 1019.98 hPa Calm   3 km/h 64% 0 mm 538 W/m2
15:35 25 °C 18 °C 1019.98 hPa Calm   10 km/h 64% 0 mm 418 W/m2
15:40 25 °C 18 °C 1019.98 hPa Calm   5 km/h 64% 0 mm 589 W/m2
15:45 25 °C 18 °C 1019.98 hPa Calm   5 km/h 63% 0 mm 638 W/m2
15:50 25 °C 18 °C 1019.98 hPa Calm   3 km/h 63% 0 mm 638 W/m2
15:55 25 °C 18 °C 1019.64 hPa W 3 km/h 10 km/h 63% 0 mm 540 W/m2
16:00 25 °C 18 °C 1019.64 hPa Calm   3 km/h 64% 0 mm 580 W/m2
16:05 25 °C 18 °C 1019.64 hPa SW 3 km/h 11 km/h 63% 0 mm 529 W/m2
16:10 25 °C 18 °C 1019.64 hPa Calm   6 km/h 63% 0 mm 338 W/m2
16:15 25 °C 18 °C 1019.3 hPa SE 5 km/h 5 km/h 63% 0 mm 367 W/m2
16:20 25 °C 17 °C 1019.3 hPa Calm   5 km/h 63% 0 mm 526 W/m2
16:25 25 °C 17 °C 1019.3 hPa Calm   10 km/h 63% 0 mm 267 W/m2
16:30 24 °C 17 °C 1019.3 hPa Calm   10 km/h 64% 0 mm 202 W/m2
16:35 24 °C 17 °C 1019.3 hPa SW 3 km/h 3 km/h 65% 0 mm 299 W/m2
16:40 24 °C 17 °C 1019.3 hPa SSE 5 km/h 6 km/h 65% 0 mm 250 W/m2
16:45 24 °C 17 °C 1019.3 hPa Calm   8 km/h 66% 0 mm 295 W/m2
16:50 24 °C 17 °C 1019.3 hPa Calm     65% 0 mm 420 W/m2
16:55 24 °C 17 °C 1019.3 hPa Calm   2 km/h 65% 0 mm 455 W/m2
17:00 25 °C 17 °C 1018.96 hPa Calm   2 km/h 65% 0 mm 253 W/m2
17:05 25 °C 18 °C 1018.96 hPa SSE 2 km/h 10 km/h 65% 0 mm 401 W/m2
17:10 25 °C 17 °C 1018.96 hPa Calm   2 km/h 64% 0 mm 388 W/m2
17:15 25 °C 17 °C 1018.96 hPa SSE 6 km/h 6 km/h 64% 0 mm 334 W/m2
17:20 24 °C 17 °C 1018.96 hPa Calm   11 km/h 65% 0 mm 287 W/m2
17:25 24 °C 17 °C 1018.96 hPa Calm   3 km/h 65% 0 mm 283 W/m2
17:30 24 °C 17 °C 1018.96 hPa Calm   2 km/h 65% 0 mm 206 W/m2
17:35 25 °C 17 °C 1018.96 hPa SW 2 km/h 10 km/h 65% 0 mm 246 W/m2
17:40 24 °C 17 °C 1018.96 hPa SSW 2 km/h 8 km/h 65% 0 mm 250 W/m2
17:45 24 °C 17 °C 1018.96 hPa SE 2 km/h 8 km/h 65% 0 mm 218 W/m2
17:50 24 °C 17 °C 1018.96 hPa Calm   6 km/h 65% 0 mm 195 W/m2
17:55 24 °C 17 °C 1018.96 hPa SSW 3 km/h 5 km/h 65% 0 mm 174 W/m2
18:00 24 °C 17 °C 1018.96 hPa Calm   6 km/h 65% 0 mm 149 W/m2
18:05 24 °C 17 °C 1018.96 hPa SSW 2 km/h 5 km/h 65% 0 mm 128 W/m2
18:10 24 °C 17 °C 1018.96 hPa Calm   6 km/h 65% 0 mm 109 W/m2
18:15 24 °C 17 °C 1018.96 hPa Calm   8 km/h 65% 0 mm 90 W/m2
18:20 24 °C 17 °C 1018.96 hPa SW 5 km/h 8 km/h 66% 0 mm 76 W/m2
18:25 24 °C 17 °C 1018.96 hPa Calm   8 km/h 67% 0 mm 51 W/m2
18:30 24 °C 17 °C 1018.96 hPa Calm   8 km/h 67% 0 mm 32 W/m2
18:35 24 °C 17 °C 1019.3 hPa SW 8 km/h 10 km/h 68% 0 mm 26 W/m2
18:40 23 °C 17 °C 1019.3 hPa SSW 2 km/h 8 km/h 68% 0 mm 23 W/m2
18:45 23 °C 17 °C 1019.3 hPa Calm   10 km/h 69% 0 mm 19 W/m2
18:50 23 °C 17 °C 1019.3 hPa Calm   6 km/h 69% 0 mm 16 W/m2
18:55 23 °C 17 °C 1019.3 hPa SSW 3 km/h 5 km/h 69% 0 mm 12 W/m2
19:00 23 °C 17 °C 1019.3 hPa SSW 2 km/h 5 km/h 70% 0 mm 11 W/m2
Meteo Juneau County
Complimenti Weather Underground - 2 mb